User: anonymous   Login
Location: Brno
(49.2000°N, 16.6330°E)
Time: 03:45:10
(UTC+02:00)
Language:

Cosmos 1459 Rocket - Orbit

View from above orbital plane
View from above orbital plane
View from above satellite
View from above satellite

Ground track
Ground track

The orbit data is extracted from the following two-line orbital elements,

1 14059U 83042B   18112.60351090 +.00000044 +00000-0 +27832-4 0  9997
2 14059 082.9747 192.2639 0044063 117.2291 243.3367 13.78622753758125
Epoch (UTC): 22 April 2018 14:29:03
Eccentricity: 0.0044063
inclination: 82.9747°
perigee height: 936 km
apogee height: 1001 km
right ascension of ascending node: 192.2639°
argument of perigee: 117.2291°
revolutions per day: 13.78622753
mean anomaly at epoch: 243.3367°
orbit number at epoch: 75812

The dashed part of the orbit path shows where the satellite is in the earth's shadow,  

DLR